When you browse on this site, cookies collect data to enhance your experience and personalize the content and advertising you see.
Visit our Privacy Policy to learn more. By continuing to use the site, you agree to this use of cookies and data.
  • In Romania
  • List of Countries
  • For 7 days
  • Water Temperature
  • Satellite Maps
  • Weather Map
  • Weather Widgets
  • user-avatar
    Login

    Hourly Weather Hanoi

    Today, 22 January, Tuesday

    Time Temperature Precipitation Wind Pressure Humidity
    00:00 +16°C° 0 mm 2 mps 767 mmHg 56%
    01:00 +16°C° 0 mm 2 mps 767 mmHg 57%
    02:00 +16°C° 0 mm 2 mps 767 mmHg 57%
    03:00 +16°C° 0 mm 2 mps 767 mmHg 56%
    04:00 +15°C° 0 mm 2 mps 767 mmHg 56%
    05:00 +15°C° 0 mm 2 mps 767 mmHg 56%
    06:00 +15°C° 0 mm 2 mps 767 mmHg 55%
    07:00 +14°C° 0 mm 3 mps 768 mmHg 53%
    08:00 +14°C° 0 mm 3 mps 768 mmHg 51%
    09:00 +16°C° 0 mm 3 mps 768 mmHg 49%
    10:00 +16°C° 0 mm 3 mps 768 mmHg 46%
    11:00 +17°C° 0 mm 2 mps 767 mmHg 44%
    12:00 +18°C° 0 mm 2 mps 767 mmHg 41%
    13:00 +20°C° 0 mm 2 mps 766 mmHg 38%
    14:00 +20°C° 0 mm 2 mps 765 mmHg 38%
    15:00 +20°C° 0 mm 2 mps 765 mmHg 39%
    16:00 +21°C° 0 mm 2 mps 764 mmHg 39%
    17:00 +21°C° 0 mm 1 mps 764 mmHg 43%
    18:00 +20°C° 0 mm 1 mps 764 mmHg 47%
    19:00 +17°C° 0 mm 0 mps 765 mmHg 47%
    20:00 +17°C° 0 mm 0 mps 765 mmHg 49%
    21:00 +18°C° 0 mm 1 mps 765 mmHg 51%
    22:00 +18°C° 0 mm 1 mps 765 mmHg 53%
    23:00 +18°C° 0 mm 1 mps 765 mmHg 55%

    Tomorrow, 23 January, Wednesday

    Time Temperature Precipitation Wind Pressure Humidity
    00:00 +16°C° 0 mm 1 mps 765 mmHg 57%
    01:00 +16°C° 0 mm 1 mps 764 mmHg 59%
    02:00 +16°C° 0 mm 1 mps 764 mmHg 60%
    03:00 +15°C° 0 mm 1 mps 764 mmHg 62%
    04:00 +15°C° 0 mm 1 mps 764 mmHg 63%
    05:00 +15°C° 0 mm 1 mps 764 mmHg 65%
    06:00 +15°C° 0 mm 1 mps 764 mmHg 66%
    07:00 +15°C° 0 mm 1 mps 765 mmHg 67%
    08:00 +16°C° 0 mm 1 mps 765 mmHg 61%
    09:00 +19°C° 0 mm 1 mps 765 mmHg 56%
    10:00 +20°C° 0 mm 1 mps 765 mmHg 51%
    11:00 +21°C° 0 mm 1 mps 764 mmHg 50%
    12:00 +21°C° 0 mm 2 mps 764 mmHg 49%
    13:00 +23°C° 0 mm 2 mps 763 mmHg 47%
    14:00 +24°C° 0 mm 2 mps 762 mmHg 47%
    15:00 +24°C° 0 mm 3 mps 762 mmHg 47%
    16:00 +25°C° 0 mm 3 mps 761 mmHg 47%
    17:00 +24°C° 0 mm 3 mps 762 mmHg 52%
    18:00 +22°C° 0 mm 4 mps 762 mmHg 57%
    19:00 +20°C° 0 mm 4 mps 762 mmHg 62%
    20:00 +20°C° 0 mm 3 mps 763 mmHg 65%
    21:00 +19°C° 0 mm 3 mps 763 mmHg 69%
    22:00 +19°C° 0 mm 2 mps 763 mmHg 73%
    23:00 +18°C° 0 mm 2 mps 763 mmHg 75%

    Day after tomorrow, 24 January, Thursday

    Time Temperature Precipitation Wind Pressure Humidity
    00:00 +18°C° 0 mm 2 mps 763 mmHg 78%
    01:00 +19°C° 0 mm 1 mps 763 mmHg 80%
    02:00 +19°C° 0 mm 1 mps 763 mmHg 81%
    03:00 +18°C° 0 mm 1 mps 762 mmHg 83%
    04:00 +18°C° 0 mm 1 mps 762 mmHg 84%
    05:00 +18°C° 0 mm 1 mps 762 mmHg 83%
    06:00 +19°C° 0 mm 1 mps 763 mmHg 82%
    07:00 +19°C° 0 mm 1 mps 763 mmHg 81%
    08:00 +19°C° 0 mm 1 mps 763 mmHg 79%
    09:00 +19°C° 0 mm 1 mps 764 mmHg 78%
    10:00 +18°C° 0 mm 0 mps 764 mmHg 77%
    11:00 +21°C° 0 mm 1 mps 764 mmHg 73%
    12:00 +22°C° 0 mm 1 mps 763 mmHg 69%
    13:00 +23°C° 0 mm 2 mps 762 mmHg 65%
    14:00 +23°C° 0 mm 2 mps 762 mmHg 65%
    15:00 +24°C° 0 mm 2 mps 761 mmHg 65%
    16:00 +24°C° 0 mm 2 mps 761 mmHg 65%
    17:00 +23°C° 0 mm 2 mps 761 mmHg 68%
    18:00 +23°C° 0 mm 2 mps 761 mmHg 71%
    19:00 +23°C° 0 mm 2 mps 762 mmHg 74%
    20:00 +21°C° 0 mm 2 mps 762 mmHg 76%
    21:00 +21°C° 0 mm 2 mps 763 mmHg 77%
    22:00 +21°C° 0 mm 2 mps 763 mmHg 78%
    23:00 +21°C° 0 mm 2 mps 763 mmHg 79%

    25 January, Friday

    Time Temperature Precipitation Wind Pressure Humidity
    00:00 +21°C° 0 mm 2 mps 762 mmHg 80%
    01:00 +21°C° 0 mm 2 mps 762 mmHg 81%
    02:00 +21°C° 0.1 mm 2 mps 762 mmHg 82%
    03:00 +21°C° 0.1 mm 1 mps 762 mmHg 83%
    04:00 +21°C° 0.1 mm 1 mps 762 mmHg 85%
    05:00 +21°C° 0.1 mm 1 mps 762 mmHg 85%
    06:00 +21°C° 0.1 mm 1 mps 763 mmHg 86%
    07:00 +21°C° 0.1 mm 1 mps 763 mmHg 87%
    08:00 +20°C° 0.2 mm 2 mps 764 mmHg 87%
    09:00 +20°C° 0.2 mm 2 mps 765 mmHg 86%
    10:00 +20°C° 0.2 mm 2 mps 765 mmHg 86%
    11:00 +20°C° 0.2 mm 2 mps 765 mmHg 86%
    12:00 +21°C° 0.2 mm 1 mps 764 mmHg 86%
    13:00 +21°C° 0.2 mm 1 mps 764 mmHg 85%
    14:00 +22°C° 0 mm 1 mps 763 mmHg 83%
    15:00 +22°C° 0 mm 1 mps 763 mmHg 81%
    16:00 +22°C° 0 mm 1 mps 763 mmHg 79%
    17:00 +22°C° 0 mm 1 mps 763 mmHg 81%
    18:00 +22°C° 0 mm 1 mps 764 mmHg 83%
    19:00 +21°C° 0 mm 1 mps 765 mmHg 85%
    20:00 +21°C° 0.1 mm 1 mps 765 mmHg 85%
    21:00 +21°C° 0.1 mm 1 mps 766 mmHg 86%
    22:00 +21°C° 0.1 mm 1 mps 766 mmHg 86%
    23:00 +21°C° 0.2 mm 1 mps 766 mmHg 86%

    26 January, Saturday

    Time Temperature Precipitation Wind Pressure Humidity
    00:00 +21°C° 0.2 mm 1 mps 766 mmHg 85%
    01:00 +21°C° 0.2 mm 1 mps 765 mmHg 85%
    02:00 +21°C° 0.1 mm 1 mps 765 mmHg 84%
    03:00 +21°C° 0.1 mm 1 mps 765 mmHg 83%
    04:00 +21°C° 0.1 mm 1 mps 765 mmHg 82%
    05:00 +21°C° 0 mm 1 mps 765 mmHg 82%
    06:00 +21°C° 0 mm 1 mps 766 mmHg 82%
    07:00 +21°C° 0 mm 1 mps 766 mmHg 82%
    08:00 +22°C° 0 mm 1 mps 767 mmHg 75%
    09:00 +23°C° 0 mm 2 mps 767 mmHg 68%
    10:00 +25°C° 0 mm 2 mps 768 mmHg 61%
    11:00 +26°C° 0 mm 2 mps 767 mmHg 57%
    12:00 +27°C° 0 mm 2 mps 766 mmHg 52%
    13:00 +28°C° 0 mm 3 mps 766 mmHg 47%
    14:00 +27°C° 0 mm 3 mps 765 mmHg 48%
    15:00 +27°C° 0 mm 3 mps 765 mmHg 49%
    16:00 +27°C° 0 mm 4 mps 764 mmHg 50%
    17:00 +26°C° 0 mm 4 mps 764 mmHg 54%
    18:00 +25°C° 0 mm 4 mps 765 mmHg 59%
    19:00 +22°C° 0 mm 4 mps 765 mmHg 63%
    20:00 +22°C° 0 mm 3 mps 766 mmHg 67%
    21:00 +21°C° 0 mm 3 mps 766 mmHg 71%
    22:00 +20°C° 0 mm 2 mps 766 mmHg 76%
    23:00 +20°C° 0 mm 2 mps 766 mmHg 78%

    27 January, Sunday

    Time Temperature Precipitation Wind Pressure Humidity
    00:00 +21°C° 0 mm 1 mps 766 mmHg 80%
    01:00 +20°C° 0 mm 1 mps 766 mmHg 82%
    02:00 +20°C° 0 mm 1 mps 765 mmHg 84%
    03:00 +20°C° 0 mm 1 mps 765 mmHg 85%
    04:00 +18°C° 0 mm 0 mps 765 mmHg 86%
    05:00 +17°C° 0 mm 0 mps 765 mmHg 86%
    06:00 +19°C° 0 mm 1 mps 765 mmHg 86%
    07:00 +19°C° 0 mm 1 mps 766 mmHg 86%
    08:00 +21°C° 0 mm 1 mps 766 mmHg 80%
    09:00 +21°C° 0 mm 2 mps 767 mmHg 73%
    10:00 +23°C° 0 mm 2 mps 767 mmHg 66%
    11:00 +24°C° 0 mm 3 mps 766 mmHg 60%
    12:00 +26°C° 0 mm 3 mps 765 mmHg 54%
    13:00 +27°C° 0 mm 4 mps 764 mmHg 48%
    14:00 +26°C° 0 mm 4 mps 764 mmHg 49%
    15:00 +26°C° 0 mm 4 mps 763 mmHg 49%
    16:00 +26°C° 0 mm 4 mps 763 mmHg 49%
    17:00 +25°C° 0 mm 4 mps 763 mmHg 54%
    18:00 +23°C° 0 mm 4 mps 763 mmHg 59%
    19:00 +21°C° 0 mm 4 mps 764 mmHg 64%
    20:00 +21°C° 0 mm 3 mps 764 mmHg 68%
    21:00 +20°C° 0 mm 2 mps 764 mmHg 72%
    22:00 +20°C° 0 mm 2 mps 765 mmHg 77%
    23:00 +20°C° 0 mm 1 mps 764 mmHg 79%
    Show more